Location: Newark
(44.6028°N, 124.0883°W)
Time: 07:58:02
(UTC+00:00)

Vanguard 1 - Visible Passes

Search period start: 14 October 2019 00:00
Search period end: 24 October 2019 00:00
Orbit: 653 x 3830 km, 34.3° (Epoch: 13 October)

Date Brightness Start Highest point End Pass type
(mag) Time Alt. Az. Time Alt. Az. Time Alt. Az.
14 Oct 12.3 03:07:41 10° SSW 03:16:00 29° SE 03:21:09 24° ESE visible
14 Oct 12.2 05:25:01 10° WSW 05:33:51 49° SSW 05:33:51 49° SSW visible
14 Oct 13.5 07:45:17 10° W 08:20:46 16° ESE 08:23:49 10° ESE visible
14 Oct 13.3 10:33:32 34° S 10:33:32 34° S 10:46:14 10° SSE visible
14 Oct 13.6 12:46:19 16° WSW 12:48:50 17° SW 13:00:14 10° SSW visible
15 Oct 12.2 03:27:35 10° SSW 03:36:24 36° SE 03:40:50 30° ESE visible
15 Oct 12.3 05:45:43 10° WSW 05:53:31 46° SW 05:53:31 46° SW visible
15 Oct 13.7 08:41:15 17° SE 08:41:15 17° SE 08:44:46 10° SE visible
15 Oct 13.4 10:54:01 30° S 10:54:01 30° S 11:05:55 10° SSE visible
15 Oct 13.8 13:06:47 10° WSW 13:09:13 11° SW 13:13:22 10° SW visible
16 Oct 12.0 03:47:47 10° SW 03:56:58 42° SSE 04:00:28 37° ESE visible
16 Oct 12.5 06:06:30 10° WSW 06:13:10 40° SW 06:13:10 40° SW visible
16 Oct 13.8 09:01:41 18° SE 09:01:41 18° SE 09:05:29 10° SE visible
16 Oct 13.5 11:14:27 25° SSW 11:14:27 25° SSW 11:25:03 10° S visible
17 Oct 12.4 01:52:31 10° S 01:58:06 19° SE 02:05:52 10° E visible
17 Oct 11.9 04:08:10 10° SW 04:17:41 47° SSE 04:20:04 44° SE visible
17 Oct 12.7 06:27:22 10° WSW 06:32:46 33° WSW 06:32:46 33° WSW visible
17 Oct 13.9 09:22:03 17° SSE 09:22:03 17° SSE 09:25:55 10° SE visible
17 Oct 13.7 11:34:49 19° SSW 11:34:49 19° SSW 11:43:25 10° S visible
18 Oct 12.2 02:11:53 10° S 02:18:20 25° SE 02:26:57 12° E visible
18 Oct 11.9 04:28:43 10° WSW 04:38:32 52° SSE 04:39:39 51° SSE visible
18 Oct 12.9 06:48:17 10° W 06:52:20 26° WSW 06:52:20 26° WSW visible
18 Oct 13.9 09:42:21 17° SSE 09:42:21 17° SSE 09:46:00 10° SSE visible
18 Oct 13.8 11:55:06 14° SSW 11:55:06 14° SSW 12:00:21 10° SSW visible
19 Oct 12.0 02:31:43 10° SSW 02:38:43 31° SE 02:46:31 17° E visible
19 Oct 11.9 04:49:23 10° WSW 04:59:12 54° S 04:59:12 54° S visible
19 Oct 13.2 07:09:17 10° W 07:11:53 20° WSW 07:11:53 20° WSW visible
19 Oct 13.9 10:02:34 15° SSE 10:02:34 15° SSE 10:05:36 10° SSE visible
20 Oct 11.8 02:51:53 10° SW 02:59:15 37° SSE 03:06:03 23° ESE visible
20 Oct 11.9 05:10:08 10° WSW 05:18:44 53° SSW 05:18:44 53° SSW visible
20 Oct 13.4 07:30:21 10° W 08:09:57 - SE 07:31:25 14° W visible
20 Oct 14.0 10:22:42 13° S 10:22:42 13° S 10:24:38 10° S visible
21 Oct 11.7 03:12:15 10° SW 03:19:55 43° SSE 03:25:34 29° ESE visible
21 Oct 12.1 05:30:57 10° WSW 05:38:15 46° SW 05:38:15 46° SW visible
21 Oct13.608:30:01SE08:30:01SE07:50:57Wvisible
21 Oct 14.1 10:42:44 10° S 10:42:44 10° S 10:42:46 10° S visible
22 Oct 11.7 03:32:47 10° SW 03:40:42 47° SSE 03:45:06 36° ESE visible
22 Oct 12.4 05:51:49 10° W 05:57:47 38° SW 05:57:47 38° SW visible
22 Oct13.808:49:57SE08:49:57SE08:10:27Wvisible
23 Oct 11.8 01:36:06 10° SSW 01:41:34 26° SE 01:49:56 10° E visible
23 Oct 11.6 03:53:25 10° WSW 04:01:34 50° S 04:04:37 43° SE visible
23 Oct 12.6 06:12:46 10° W 06:17:19 30° WSW 06:17:19 30° WSW visible
